Showing default

SKYNET 5C, 33055

Orbit data source: Space-Track

SKYNET 5C, 33055 is a payload satellite owned by Paradigm (UK) in GEO that was launched on Thu, 12 Jun 2008 UTC via an ARIANE 5ECA launch vehicle from the French Guiana (FRGUI). Payload-class satellites include a variety of spacecraft equipped with specific instruments for various scientific and technological missions. These include communications satellites like Starlink; space stations such as the ISS; scientific satellites like the Hubble; Earth observation satellites from companies like Planet Labs, Umbra, and HawkEye 360; GPS; miniature CubeSats for education and research; and military/defense satellites.

Not visible in the next 10 days
Identifier
33055, 2008-030A
Orbit
GEO
Country
Flag of UKUK
Related business
Manufacturer
EADS/Bremen
Mission
Operational Defense Communications
Bus & Motor
EUROSTAR 3000, R-4D-15-375
Mass
4,635 kg wet, 2,170 kg dry
Launch date (UTC)
2008-06-12 (18 years ago)
Launch vehicle
ARIANE 5ECA
Launch site
French Guiana (FRGUI)
Object type
Payload
Rocket body
Debris
Shape & HBR
Box + 2 Pan, 17.0 m
Radar Cross Section
41.425 m², Large (>1 m²)

Expand to show TLE details & history
Last TLE update: 10 hours ago

TLE from 10 hours ago
0 SKYNET 5C
1 33055U 08030A   26255.29070169 -.00000152  00000-0  00000-0 0  9990
2 33055   4.0063  75.9462 0004788 106.5255 255.7028  1.00271655 66834
Epoch: 2026-09-12T06:58Z
TLE epoch observation values (Epoch: 2026-09-12T06:58:36.626Z)
Latitude
0.12528°
Longitude
-17.84505°
Altitude
35,791.091 km
Speed
3.074 km/s
True Right ascension
05h 12m 26s
True Declination
0° 07' 31"
Sunlit
Object was in daylight at epoch
Visualization orbit readout
Latitude
Unknown
Longitude
Unknown
Altitude
Unknown
Speed
Unknown
Apparent Right ascension
Unknown
Apparent Declination
Unknown
Sunlit
N/A
Visualization observer readout
Local Sidereal Time
09:33:53
Azimuth
Unknown
Elevation
Unknown
Doppler factor
Unknown
Orbital elements
Apogee altitude
35,807.883 km
Perigee altitude
35,767.505 km
Semi-major axis
42,165.831 km
Eccentricity
0.00048
Inclination
4.0063°
RAAN
75.9462°
Arg. of periapsis
106.5255°
True anomaly
255.64964°
Mean anomaly
255.7028°
Eccentric anomaly
255.67622°
Mean motion
0.25067 °/min
Orbital period
1,436.15 mins
BSTAR
0
Loading maneuver chart data...
Computing Atmospheric mass density...
Loading historical data...
Loading historical data...
Loading historical data...
Loading historical data...
Loading historical data...
Loading historical data...
Loading historical data...

Documentation

Showing up to 5 results
|